PWSweather.com
Personal Weather Stations
Station Observations
KTXNEWBR92
New Braunfels, TX

New Braunfels, TX

Lat: 29.722, Lon: -98.17

Elevation: 850

Station Type:

High Low Average
Temperature 57.0°F13.9°C 48.0°F8.9°C 52.6°F11.4°C
Dew Point 54.1°F12.3°C 41.5°F5.3°C 49.2°F9.6°C
Winds 0.9 mph 1.4 kmh Calm Calm Calm ECalm E
Wind Gusts 2.5 mph4.0 kmh -- --
Humidity 94% 78% 88%
Pressure 30.03 in1016.9 mb 29.86 in1011.2 mb -
Precipitation 0.06 in1.5 mm - -
Hour Temp Dew Point Humidity Winds Wind Gusts Pressure Precip Precip Rate Daily Precip Total
12:04 AM 48.0°F8.9°C 41.2°F5.1°C 77% Calm Calm -- 30.01 in1016.3 mb 0.00 in0.0 mm 0.00 in0.0 mm 0.00 in0.0 mm
12:09 AM 48.0°F8.9°C 41.2°F5.1°C 77% Calm Calm -- 30.02 in1016.6 mb 0.00 in0.0 mm 0.00 in0.0 mm 0.00 in0.0 mm
12:14 AM 48.0°F8.9°C 41.2°F5.1°C 77% 0.9 mph E1.4 kmh E 2.5 mph4.0 kmh 30.01 in1016.3 mb 0.00 in0.0 mm 0.00 in0.0 mm 0.00 in0.0 mm
12:19 AM 48.0°F8.9°C 41.2°F5.1°C 77% Calm Calm -- 30.02 in1016.6 mb 0.00 in0.0 mm 0.00 in0.0 mm 0.00 in0.0 mm
12:24 AM 48.0°F8.9°C 41.5°F5.3°C 78% Calm Calm -- 30.01 in1016.3 mb 0.00 in0.0 mm 0.00 in0.0 mm 0.00 in0.0 mm
12:29 AM 48.0°F8.9°C 41.5°F5.3°C 78% Calm Calm -- 30.02 in1016.6 mb 0.00 in0.0 mm 0.00 in0.0 mm 0.00 in0.0 mm
12:34 AM 48.0°F8.9°C 41.5°F5.3°C 78% Calm Calm -- 30.01 in1016.3 mb 0.00 in0.0 mm 0.00 in0.0 mm 0.00 in0.0 mm
12:39 AM 48.0°F8.9°C 41.5°F5.3°C 78% Calm Calm -- 30.01 in1016.3 mb 0.00 in0.0 mm 0.00 in0.0 mm 0.00 in0.0 mm
12:44 AM 48.0°F8.9°C 41.5°F5.3°C 78% Calm Calm -- 30.01 in1016.3 mb 0.00 in0.0 mm 0.00 in0.0 mm 0.00 in0.0 mm
12:49 AM 48.0°F8.9°C 41.5°F5.3°C 78% Calm Calm -- 30.02 in1016.6 mb 0.00 in0.0 mm 0.00 in0.0 mm 0.00 in0.0 mm
12:54 AM 48.0°F8.9°C 41.5°F5.3°C 78% Calm Calm -- 30.01 in1016.3 mb 0.00 in0.0 mm 0.00 in0.0 mm 0.00 in0.0 mm
01:04 AM 48.0°F8.9°C 41.5°F5.3°C 78% Calm Calm -- 30.02 in1016.6 mb 0.00 in0.0 mm 0.00 in0.0 mm 0.00 in0.0 mm
01:09 AM 48.0°F8.9°C 41.5°F5.3°C 78% Calm Calm -- 30.02 in1016.6 mb 0.00 in0.0 mm 0.00 in0.0 mm 0.00 in0.0 mm
01:14 AM 48.0°F8.9°C 41.5°F5.3°C 78% Calm Calm -- 30.03 in1016.9 mb 0.00 in0.0 mm 0.00 in0.0 mm 0.00 in0.0 mm
01:19 AM 48.0°F8.9°C 41.5°F5.3°C 78% Calm Calm -- 30.03 in1016.9 mb 0.00 in0.0 mm 0.00 in0.0 mm 0.00 in0.0 mm
01:24 AM 48.0°F8.9°C 41.5°F5.3°C 78% Calm Calm -- 30.03 in1016.9 mb 0.00 in0.0 mm 0.00 in0.0 mm 0.00 in0.0 mm
01:29 AM 48.0°F8.9°C 41.5°F5.3°C 78% Calm Calm -- 30.02 in1016.6 mb 0.00 in0.0 mm 0.00 in0.0 mm 0.00 in0.0 mm
01:34 AM 48.0°F8.9°C 41.5°F5.3°C 78% Calm Calm -- 30.02 in1016.6 mb 0.00 in0.0 mm 0.00 in0.0 mm 0.00 in0.0 mm
01:39 AM 48.0°F8.9°C 41.5°F5.3°C 78% Calm Calm -- 30.02 in1016.6 mb 0.00 in0.0 mm 0.00 in0.0 mm 0.00 in0.0 mm
01:44 AM 48.0°F8.9°C 41.5°F5.3°C 78% Calm Calm -- 30.01 in1016.3 mb 0.00 in0.0 mm 0.00 in0.0 mm 0.00 in0.0 mm
01:49 AM 48.2°F9.0°C 41.7°F5.4°C 78% Calm Calm -- 30.01 in1016.3 mb 0.00 in0.0 mm 0.00 in0.0 mm 0.00 in0.0 mm
01:54 AM 48.2°F9.0°C 41.7°F5.4°C 78% Calm Calm -- 30.01 in1016.3 mb 0.00 in0.0 mm 0.00 in0.0 mm 0.00 in0.0 mm
01:59 AM 48.2°F9.0°C 41.7°F5.4°C 78% Calm Calm -- 30.01 in1016.3 mb 0.00 in0.0 mm 0.00 in0.0 mm 0.00 in0.0 mm
02:04 AM 48.2°F9.0°C 41.7°F5.4°C 78% Calm Calm -- 30.01 in1016.3 mb 0.00 in0.0 mm 0.00 in0.0 mm 0.00 in0.0 mm
02:09 AM 48.2°F9.0°C 41.7°F5.4°C 78% Calm Calm -- 30.00 in1015.9 mb 0.00 in0.0 mm 0.00 in0.0 mm 0.00 in0.0 mm
02:14 AM 48.2°F9.0°C 41.7°F5.4°C 78% Calm Calm -- 30.01 in1016.3 mb 0.00 in0.0 mm 0.00 in0.0 mm 0.00 in0.0 mm
02:19 AM 48.2°F9.0°C 41.7°F5.4°C 78% Calm Calm -- 30.00 in1015.9 mb 0.00 in0.0 mm 0.00 in0.0 mm 0.00 in0.0 mm
02:24 AM 48.2°F9.0°C 41.7°F5.4°C 78% Calm Calm -- 30.00 in1015.9 mb 0.00 in0.0 mm 0.00 in0.0 mm 0.00 in0.0 mm
02:29 AM 48.2°F9.0°C 41.7°F5.4°C 78% Calm Calm -- 30.00 in1015.9 mb 0.00 in0.0 mm 0.00 in0.0 mm 0.00 in0.0 mm
02:34 AM 48.2°F9.0°C 41.7°F5.4°C 78% Calm Calm -- 29.99 in1015.6 mb 0.00 in0.0 mm 0.00 in0.0 mm 0.00 in0.0 mm
02:39 AM 48.2°F9.0°C 41.7°F5.4°C 78% Calm Calm -- 30.00 in1015.9 mb 0.00 in0.0 mm 0.00 in0.0 mm 0.00 in0.0 mm
02:44 AM 48.2°F9.0°C 41.7°F5.4°C 78% Calm Calm -- 29.99 in1015.6 mb 0.00 in0.0 mm 0.00 in0.0 mm 0.00 in0.0 mm
02:49 AM 48.2°F9.0°C 41.7°F5.4°C 78% Calm Calm -- 29.99 in1015.6 mb 0.00 in0.0 mm 0.00 in0.0 mm 0.00 in0.0 mm
02:54 AM 48.2°F9.0°C 41.7°F5.4°C 78% Calm Calm -- 29.99 in1015.6 mb 0.00 in0.0 mm 0.00 in0.0 mm 0.00 in0.0 mm
02:59 AM 48.2°F9.0°C 41.7°F5.4°C 78% Calm Calm -- 29.99 in1015.6 mb 0.00 in0.0 mm 0.00 in0.0 mm 0.00 in0.0 mm
03:04 AM 48.2°F9.0°C 41.7°F5.4°C 78% Calm Calm -- 30.00 in1015.9 mb 0.00 in0.0 mm 0.00 in0.0 mm 0.00 in0.0 mm
03:09 AM 48.2°F9.0°C 41.7°F5.4°C 78% Calm Calm -- 29.99 in1015.6 mb 0.00 in0.0 mm 0.00 in0.0 mm 0.00 in0.0 mm
03:13 AM 48.2°F9.0°C 41.7°F5.4°C 78% Calm Calm -- 29.99 in1015.6 mb 0.00 in0.0 mm 0.00 in0.0 mm 0.00 in0.0 mm
03:19 AM 48.2°F9.0°C 41.7°F5.4°C 78% Calm Calm -- 29.99 in1015.6 mb 0.00 in0.0 mm 0.00 in0.0 mm 0.00 in0.0 mm
03:24 AM 48.2°F9.0°C 41.7°F5.4°C 78% Calm Calm -- 29.99 in1015.6 mb 0.00 in0.0 mm 0.00 in0.0 mm 0.00 in0.0 mm
03:29 AM 48.2°F9.0°C 41.7°F5.4°C 78% Calm Calm -- 29.99 in1015.6 mb 0.00 in0.0 mm 0.00 in0.0 mm 0.00 in0.0 mm
03:34 AM 48.4°F9.1°C 41.9°F5.5°C 78% Calm Calm -- 29.99 in1015.6 mb 0.00 in0.0 mm 0.00 in0.0 mm 0.00 in0.0 mm
03:39 AM 48.4°F9.1°C 41.9°F5.5°C 78% Calm Calm -- 29.99 in1015.6 mb 0.00 in0.0 mm 0.00 in0.0 mm 0.00 in0.0 mm
03:44 AM 48.4°F9.1°C 41.9°F5.5°C 78% Calm Calm -- 29.98 in1015.2 mb 0.00 in0.0 mm 0.00 in0.0 mm 0.00 in0.0 mm
03:49 AM 48.4°F9.1°C 41.9°F5.5°C 78% Calm Calm -- 29.98 in1015.2 mb 0.00 in0.0 mm 0.00 in0.0 mm 0.00 in0.0 mm
03:54 AM 48.4°F9.1°C 41.9°F5.5°C 78% Calm Calm -- 29.98 in1015.2 mb 0.00 in0.0 mm 0.00 in0.0 mm 0.00 in0.0 mm
03:59 AM 48.4°F9.1°C 41.9°F5.5°C 78% Calm Calm -- 29.98 in1015.2 mb 0.00 in0.0 mm 0.00 in0.0 mm 0.00 in0.0 mm
04:04 AM 48.4°F9.1°C 41.9°F5.5°C 78% Calm Calm -- 29.99 in1015.6 mb 0.00 in0.0 mm 0.00 in0.0 mm 0.00 in0.0 mm
04:09 AM 48.4°F9.1°C 41.9°F5.5°C 78% 0.2 mph SSE0.3 kmh SSE 2.5 mph4.0 kmh 29.98 in1015.2 mb 0.00 in0.0 mm 0.00 in0.0 mm 0.00 in0.0 mm
04:14 AM 48.4°F9.1°C 41.9°F5.5°C 78% Calm Calm -- 29.98 in1015.2 mb 0.00 in0.0 mm 0.00 in0.0 mm 0.00 in0.0 mm
04:19 AM 48.6°F9.2°C 42.1°F5.6°C 78% Calm Calm -- 29.99 in1015.6 mb 0.00 in0.0 mm 0.00 in0.0 mm 0.00 in0.0 mm
04:24 AM 48.6°F9.2°C 42.1°F5.6°C 78% 0.2 mph WNW0.3 kmh WNW 2.5 mph4.0 kmh 29.99 in1015.6 mb 0.00 in0.0 mm 0.00 in0.0 mm 0.00 in0.0 mm
04:29 AM 48.6°F9.2°C 42.1°F5.6°C 78% Calm Calm -- 30.00 in1015.9 mb 0.00 in0.0 mm 0.00 in0.0 mm 0.00 in0.0 mm
04:34 AM 48.6°F9.2°C 42.1°F5.6°C 78% Calm Calm -- 30.00 in1015.9 mb 0.00 in0.0 mm 0.00 in0.0 mm 0.00 in0.0 mm
04:39 AM 48.6°F9.2°C 42.1°F5.6°C 78% Calm Calm -- 30.00 in1015.9 mb 0.00 in0.0 mm 0.00 in0.0 mm 0.00 in0.0 mm
04:44 AM 48.6°F9.2°C 42.1°F5.6°C 78% Calm Calm -- 30.01 in1016.3 mb 0.00 in0.0 mm 0.00 in0.0 mm 0.00 in0.0 mm
04:49 AM 48.6°F9.2°C 42.4°F5.8°C 79% Calm Calm -- 30.00 in1015.9 mb 0.00 in0.0 mm 0.00 in0.0 mm 0.00 in0.0 mm
04:54 AM 48.6°F9.2°C 42.4°F5.8°C 79% Calm Calm -- 29.99 in1015.6 mb 0.00 in0.0 mm 0.00 in0.0 mm 0.00 in0.0 mm
04:59 AM 48.4°F9.1°C 42.4°F5.8°C 80% Calm Calm -- 29.99 in1015.6 mb 0.00 in0.0 mm 0.00 in0.0 mm 0.00 in0.0 mm
05:04 AM 48.4°F9.1°C 42.8°F6.0°C 81% Calm Calm -- 29.99 in1015.6 mb 0.00 in0.0 mm 0.00 in0.0 mm 0.00 in0.0 mm
05:09 AM 48.4°F9.1°C 42.8°F6.0°C 81% 0.2 mph SSE0.3 kmh SSE 2.5 mph4.0 kmh 29.99 in1015.6 mb 0.00 in0.0 mm 0.00 in0.0 mm 0.00 in0.0 mm
05:14 AM 48.4°F9.1°C 43.2°F6.2°C 82% Calm Calm -- 29.98 in1015.2 mb 0.00 in0.0 mm 0.00 in0.0 mm 0.00 in0.0 mm
05:19 AM 48.4°F9.1°C 43.2°F6.2°C 82% Calm Calm -- 29.98 in1015.2 mb 0.00 in0.0 mm 0.00 in0.0 mm 0.00 in0.0 mm
05:24 AM 48.4°F9.1°C 43.5°F6.4°C 83% Calm Calm -- 29.98 in1015.2 mb 0.00 in0.0 mm 0.00 in0.0 mm 0.00 in0.0 mm
05:29 AM 48.4°F9.1°C 43.5°F6.4°C 83% Calm Calm -- 29.98 in1015.2 mb 0.00 in0.0 mm 0.00 in0.0 mm 0.00 in0.0 mm
05:34 AM 48.4°F9.1°C 43.5°F6.4°C 83% Calm Calm -- 29.98 in1015.2 mb 0.00 in0.0 mm 0.00 in0.0 mm 0.00 in0.0 mm
05:39 AM 48.4°F9.1°C 43.5°F6.4°C 83% Calm Calm -- 29.98 in1015.2 mb 0.00 in0.0 mm 0.00 in0.0 mm 0.00 in0.0 mm
05:44 AM 48.4°F9.1°C 43.5°F6.4°C 83% Calm Calm -- 29.98 in1015.2 mb 0.00 in0.0 mm 0.00 in0.0 mm 0.00 in0.0 mm
05:49 AM 48.4°F9.1°C 43.5°F6.4°C 83% Calm Calm -- 29.98 in1015.2 mb 0.00 in0.0 mm 0.00 in0.0 mm 0.00 in0.0 mm
05:54 AM 48.4°F9.1°C 43.5°F6.4°C 83% Calm Calm -- 29.97 in1014.9 mb 0.00 in0.0 mm 0.00 in0.0 mm 0.00 in0.0 mm
05:59 AM 48.4°F9.1°C 43.9°F6.6°C 84% Calm Calm -- 29.97 in1014.9 mb 0.00 in0.0 mm 0.00 in0.0 mm 0.00 in0.0 mm
06:04 AM 48.4°F9.1°C 43.9°F6.6°C 84% Calm Calm -- 29.97 in1014.9 mb 0.00 in0.0 mm 0.00 in0.0 mm 0.00 in0.0 mm
06:09 AM 48.6°F9.2°C 43.9°F6.6°C 84% Calm Calm -- 29.97 in1014.9 mb 0.00 in0.0 mm 0.00 in0.0 mm 0.00 in0.0 mm
06:14 AM 48.6°F9.2°C 43.9°F6.6°C 84% Calm Calm -- 29.96 in1014.6 mb 0.00 in0.0 mm 0.00 in0.0 mm 0.00 in0.0 mm
06:19 AM 48.6°F9.2°C 43.9°F6.6°C 84% Calm Calm -- 29.97 in1014.9 mb 0.00 in0.0 mm 0.00 in0.0 mm 0.00 in0.0 mm
06:24 AM 48.6°F9.2°C 43.9°F6.6°C 84% Calm Calm -- 29.97 in1014.9 mb 0.00 in0.0 mm 0.00 in0.0 mm 0.00 in0.0 mm
06:29 AM 48.6°F9.2°C 43.9°F6.6°C 84% Calm Calm -- 29.97 in1014.9 mb 0.00 in0.0 mm 0.00 in0.0 mm 0.00 in0.0 mm
06:34 AM 48.7°F9.3°C 44.1°F6.7°C 84% Calm Calm -- 29.96 in1014.6 mb 0.00 in0.0 mm 0.00 in0.0 mm 0.00 in0.0 mm
06:39 AM 48.7°F9.3°C 44.1°F6.7°C 84% Calm Calm -- 29.97 in1014.9 mb 0.00 in0.0 mm 0.00 in0.0 mm 0.00 in0.0 mm
06:44 AM 48.7°F9.3°C 44.1°F6.7°C 84% Calm Calm -- 29.97 in1014.9 mb 0.00 in0.0 mm 0.00 in0.0 mm 0.00 in0.0 mm
06:49 AM 48.7°F9.3°C 44.1°F6.7°C 84% Calm Calm -- 29.97 in1014.9 mb 0.00 in0.0 mm 0.00 in0.0 mm 0.00 in0.0 mm
06:54 AM 48.7°F9.3°C 44.1°F6.7°C 84% Calm Calm -- 29.97 in1014.9 mb 0.00 in0.0 mm 0.00 in0.0 mm 0.00 in0.0 mm
06:59 AM 48.7°F9.3°C 44.1°F6.7°C 84% Calm Calm -- 29.97 in1014.9 mb 0.00 in0.0 mm 0.00 in0.0 mm 0.00 in0.0 mm
07:03 AM 48.7°F9.3°C 44.1°F6.7°C 84% Calm Calm -- 29.97 in1014.9 mb 0.00 in0.0 mm 0.00 in0.0 mm 0.00 in0.0 mm
07:09 AM 48.7°F9.3°C 44.1°F6.7°C 84% Calm Calm -- 29.97 in1014.9 mb 0.00 in0.0 mm 0.00 in0.0 mm 0.00 in0.0 mm
07:14 AM 48.7°F9.3°C 44.1°F6.7°C 84% Calm Calm -- 29.97 in1014.9 mb 0.00 in0.0 mm 0.00 in0.0 mm 0.00 in0.0 mm
07:19 AM 48.9°F9.4°C 44.2°F6.8°C 84% Calm Calm -- 29.97 in1014.9 mb 0.00 in0.0 mm 0.00 in0.0 mm 0.00 in0.0 mm
07:24 AM 48.9°F9.4°C 44.2°F6.8°C 84% Calm Calm -- 29.97 in1014.9 mb 0.00 in0.0 mm 0.00 in0.0 mm 0.00 in0.0 mm
07:29 AM 48.9°F9.4°C 44.2°F6.8°C 84% Calm Calm -- 29.97 in1014.9 mb 0.00 in0.0 mm 0.00 in0.0 mm 0.00 in0.0 mm
07:34 AM 48.9°F9.4°C 44.6°F7.0°C 85% Calm Calm -- 29.98 in1015.2 mb 0.00 in0.0 mm 0.00 in0.0 mm 0.00 in0.0 mm
07:39 AM 48.9°F9.4°C 44.6°F7.0°C 85% Calm Calm -- 29.98 in1015.2 mb 0.00 in0.0 mm 0.00 in0.0 mm 0.00 in0.0 mm
07:44 AM 48.9°F9.4°C 44.6°F7.0°C 85% Calm Calm -- 29.98 in1015.2 mb 0.00 in0.0 mm 0.00 in0.0 mm 0.00 in0.0 mm
07:49 AM 48.9°F9.4°C 45.0°F7.2°C 86% Calm Calm -- 29.98 in1015.2 mb 0.00 in0.0 mm 0.00 in0.0 mm 0.00 in0.0 mm
07:54 AM 49.1°F9.5°C 45.1°F7.3°C 86% Calm Calm -- 29.98 in1015.2 mb 0.00 in0.0 mm 0.00 in0.0 mm 0.00 in0.0 mm
07:59 AM 49.1°F9.5°C 45.5°F7.5°C 87% Calm Calm -- 29.99 in1015.6 mb 0.00 in0.0 mm 0.00 in0.0 mm 0.00 in0.0 mm
08:04 AM 49.1°F9.5°C 45.5°F7.5°C 87% Calm Calm -- 29.99 in1015.6 mb 0.00 in0.0 mm 0.00 in0.0 mm 0.00 in0.0 mm
08:09 AM 49.1°F9.5°C 45.7°F7.6°C 88% Calm Calm -- 29.99 in1015.6 mb 0.00 in0.0 mm 0.00 in0.0 mm 0.00 in0.0 mm
08:14 AM 49.1°F9.5°C 45.7°F7.6°C 88% Calm Calm -- 29.99 in1015.6 mb 0.00 in0.0 mm 0.00 in0.0 mm 0.00 in0.0 mm
08:19 AM 49.1°F9.5°C 45.7°F7.6°C 88% Calm Calm -- 29.99 in1015.6 mb 0.00 in0.0 mm 0.00 in0.0 mm 0.00 in0.0 mm
08:24 AM 49.1°F9.5°C 46.0°F7.8°C 89% Calm Calm -- 29.98 in1015.2 mb 0.00 in0.0 mm 0.00 in0.0 mm 0.00 in0.0 mm
08:29 AM 49.1°F9.5°C 46.0°F7.8°C 89% Calm Calm -- 29.98 in1015.2 mb 0.00 in0.0 mm 0.00 in0.0 mm 0.00 in0.0 mm
08:34 AM 49.1°F9.5°C 46.4°F8.0°C 90% Calm Calm -- 29.98 in1015.2 mb 0.00 in0.0 mm 0.00 in0.0 mm 0.00 in0.0 mm
08:39 AM 49.1°F9.5°C 46.4°F8.0°C 90% Calm Calm -- 29.99 in1015.6 mb 0.00 in0.0 mm 0.00 in0.0 mm 0.00 in0.0 mm
08:44 AM 49.1°F9.5°C 46.4°F8.0°C 90% Calm Calm -- 29.99 in1015.6 mb 0.00 in0.0 mm 0.00 in0.0 mm 0.00 in0.0 mm
08:49 AM 49.1°F9.5°C 46.6°F8.1°C 91% Calm Calm -- 29.98 in1015.2 mb 0.00 in0.0 mm 0.00 in0.0 mm 0.00 in0.0 mm
08:54 AM 49.3°F9.6°C 46.8°F8.2°C 91% Calm Calm -- 29.99 in1015.6 mb 0.00 in0.0 mm 0.00 in0.0 mm 0.00 in0.0 mm
08:59 AM 49.3°F9.6°C 46.8°F8.2°C 91% Calm Calm -- 29.98 in1015.2 mb 0.00 in0.0 mm 0.00 in0.0 mm 0.00 in0.0 mm
09:04 AM 49.3°F9.6°C 47.1°F8.4°C 92% Calm Calm -- 29.98 in1015.2 mb 0.00 in0.0 mm 0.00 in0.0 mm 0.00 in0.0 mm
09:09 AM 49.3°F9.6°C 47.1°F8.4°C 92% Calm Calm -- 29.98 in1015.2 mb 0.00 in0.0 mm 0.00 in0.0 mm 0.00 in0.0 mm
09:14 AM 49.3°F9.6°C 47.1°F8.4°C 92% Calm Calm -- 29.98 in1015.2 mb 0.00 in0.0 mm 0.00 in0.0 mm 0.00 in0.0 mm
09:19 AM 49.3°F9.6°C 47.1°F8.4°C 92% Calm Calm -- 29.98 in1015.2 mb 0.00 in0.0 mm 0.00 in0.0 mm 0.00 in0.0 mm
09:24 AM 49.3°F9.6°C 47.1°F8.4°C 92% Calm Calm -- 29.98 in1015.2 mb 0.00 in0.0 mm 0.00 in0.0 mm 0.00 in0.0 mm
09:29 AM 49.3°F9.6°C 47.1°F8.4°C 92% Calm Calm -- 29.98 in1015.2 mb 0.00 in0.0 mm 0.00 in0.0 mm 0.00 in0.0 mm
09:34 AM 49.3°F9.6°C 47.3°F8.5°C 93% Calm Calm -- 29.98 in1015.2 mb 0.00 in0.0 mm 0.00 in0.0 mm 0.00 in0.0 mm
09:39 AM 49.3°F9.6°C 47.3°F8.5°C 93% Calm Calm -- 29.98 in1015.2 mb 0.00 in0.0 mm 0.00 in0.0 mm 0.00 in0.0 mm
09:44 AM 49.3°F9.6°C 47.3°F8.5°C 93% Calm Calm -- 29.98 in1015.2 mb 0.00 in0.0 mm 0.00 in0.0 mm 0.00 in0.0 mm
09:49 AM 49.3°F9.6°C 47.3°F8.5°C 93% Calm Calm -- 29.98 in1015.2 mb 0.00 in0.0 mm 0.00 in0.0 mm 0.00 in0.0 mm
09:54 AM 49.5°F9.7°C 47.5°F8.6°C 93% Calm Calm -- 29.98 in1015.2 mb 0.00 in0.0 mm 0.00 in0.0 mm 0.00 in0.0 mm
09:59 AM 49.5°F9.7°C 47.5°F8.6°C 93% Calm Calm -- 29.99 in1015.6 mb 0.00 in0.0 mm 0.00 in0.0 mm 0.00 in0.0 mm
10:04 AM 49.5°F9.7°C 47.5°F8.6°C 93% Calm Calm -- 29.99 in1015.6 mb 0.01 in0.3 mm 0.01 in0.3 mm 0.01 in0.3 mm
10:09 AM 49.6°F9.8°C 47.7°F8.7°C 93% Calm Calm -- 29.99 in1015.6 mb 0.01 in0.3 mm 0.00 in0.0 mm 0.01 in0.3 mm
10:14 AM 49.6°F9.8°C 47.7°F8.7°C 93% Calm Calm -- 30.00 in1015.9 mb 0.01 in0.3 mm 0.00 in0.0 mm 0.01 in0.3 mm
10:19 AM 49.8°F9.9°C 47.8°F8.8°C 93% Calm Calm -- 30.00 in1015.9 mb 0.01 in0.3 mm 0.00 in0.0 mm 0.01 in0.3 mm
10:24 AM 49.8°F9.9°C 47.8°F8.8°C 93% Calm Calm -- 30.00 in1015.9 mb 0.01 in0.3 mm 0.00 in0.0 mm 0.01 in0.3 mm
10:29 AM 49.8°F9.9°C 47.8°F8.8°C 93% Calm Calm -- 30.00 in1015.9 mb 0.01 in0.3 mm 0.00 in0.0 mm 0.01 in0.3 mm
10:34 AM 49.8°F9.9°C 47.8°F8.8°C 93% Calm Calm -- 30.01 in1016.3 mb 0.01 in0.3 mm 0.00 in0.0 mm 0.01 in0.3 mm
10:39 AM 50.0°F10.0°C 48.0°F8.9°C 93% Calm Calm -- 30.01 in1016.3 mb 0.01 in0.3 mm 0.00 in0.0 mm 0.01 in0.3 mm
10:44 AM 50.0°F10.0°C 48.0°F8.9°C 93% Calm Calm -- 30.01 in1016.3 mb 0.01 in0.3 mm 0.00 in0.0 mm 0.01 in0.3 mm
10:49 AM 50.2°F10.1°C 48.2°F9.0°C 93% Calm Calm -- 30.01 in1016.3 mb 0.01 in0.3 mm 0.00 in0.0 mm 0.01 in0.3 mm
10:54 AM 50.2°F10.1°C 48.2°F9.0°C 93% Calm Calm -- 30.01 in1016.3 mb 0.02 in0.5 mm 0.12 in3.0 mm 0.02 in0.5 mm
10:59 AM 50.4°F10.2°C 48.4°F9.1°C 93% Calm Calm -- 30.01 in1016.3 mb 0.02 in0.5 mm 0.00 in0.0 mm 0.02 in0.5 mm
11:04 AM 50.4°F10.2°C 48.4°F9.1°C 93% Calm Calm -- 30.01 in1016.3 mb 0.00 in0.0 mm 0.00 in0.0 mm 0.02 in0.5 mm
11:09 AM 50.7°F10.4°C 48.7°F9.3°C 93% 0.4 mph E0.6 kmh E 2.5 mph4.0 kmh 30.01 in1016.3 mb 0.00 in0.0 mm 0.00 in0.0 mm 0.02 in0.5 mm
11:14 AM 50.7°F10.4°C 48.7°F9.3°C 93% Calm Calm -- 30.00 in1015.9 mb 0.00 in0.0 mm 0.00 in0.0 mm 0.02 in0.5 mm
11:19 AM 51.1°F10.6°C 49.1°F9.5°C 93% Calm Calm -- 30.01 in1016.3 mb 0.00 in0.0 mm 0.00 in0.0 mm 0.02 in0.5 mm
11:24 AM 51.3°F10.7°C 49.3°F9.6°C 93% 0.2 mph E0.3 kmh E 2.5 mph4.0 kmh 30.01 in1016.3 mb 0.00 in0.0 mm 0.00 in0.0 mm 0.02 in0.5 mm
11:29 AM 51.4°F10.8°C 49.5°F9.7°C 93% Calm Calm -- 30.01 in1016.3 mb 0.00 in0.0 mm 0.00 in0.0 mm 0.02 in0.5 mm
11:34 AM 51.4°F10.8°C 49.5°F9.7°C 93% Calm Calm -- 30.01 in1016.3 mb 0.00 in0.0 mm 0.00 in0.0 mm 0.02 in0.5 mm
11:39 AM 51.6°F10.9°C 49.6°F9.8°C 93% Calm Calm -- 30.01 in1016.3 mb 0.00 in0.0 mm 0.00 in0.0 mm 0.02 in0.5 mm
11:44 AM 52.0°F11.1°C 50.0°F10.0°C 93% Calm Calm -- 30.01 in1016.3 mb 0.00 in0.0 mm 0.00 in0.0 mm 0.02 in0.5 mm
11:49 AM 52.0°F11.1°C 50.0°F10.0°C 93% Calm Calm -- 30.01 in1016.3 mb 0.00 in0.0 mm 0.00 in0.0 mm 0.02 in0.5 mm
11:54 AM 52.2°F11.2°C 50.2°F10.1°C 93% Calm Calm -- 30.01 in1016.3 mb 0.00 in0.0 mm 0.00 in0.0 mm 0.02 in0.5 mm
11:59 AM 52.3°F11.3°C 50.4°F10.2°C 93% Calm Calm -- 30.01 in1016.3 mb 0.00 in0.0 mm 0.00 in0.0 mm 0.02 in0.5 mm
12:04 PM 52.3°F11.3°C 50.2°F10.1°C 92% Calm Calm -- 30.01 in1016.3 mb 0.00 in0.0 mm 0.00 in0.0 mm 0.02 in0.5 mm
12:09 PM 52.5°F11.4°C 50.4°F10.2°C 92% Calm Calm -- 30.01 in1016.3 mb 0.00 in0.0 mm 0.00 in0.0 mm 0.02 in0.5 mm
12:14 PM 52.5°F11.4°C 50.4°F10.2°C 92% Calm Calm -- 30.01 in1016.3 mb 0.00 in0.0 mm 0.00 in0.0 mm 0.02 in0.5 mm
12:19 PM 52.7°F11.5°C 50.5°F10.3°C 92% Calm Calm -- 30.01 in1016.3 mb 0.00 in0.0 mm 0.00 in0.0 mm 0.02 in0.5 mm
12:24 PM 52.7°F11.5°C 50.5°F10.3°C 92% Calm Calm -- 30.00 in1015.9 mb 0.00 in0.0 mm 0.00 in0.0 mm 0.02 in0.5 mm
12:29 PM 52.9°F11.6°C 50.7°F10.4°C 92% Calm Calm -- 30.00 in1015.9 mb 0.00 in0.0 mm 0.00 in0.0 mm 0.02 in0.5 mm
12:34 PM 53.1°F11.7°C 50.9°F10.5°C 92% Calm Calm -- 30.01 in1016.3 mb 0.00 in0.0 mm 0.00 in0.0 mm 0.02 in0.5 mm
12:39 PM 53.1°F11.7°C 50.5°F10.3°C 91% Calm Calm -- 30.00 in1015.9 mb 0.00 in0.0 mm 0.00 in0.0 mm 0.02 in0.5 mm
12:44 PM 53.2°F11.8°C 50.4°F10.2°C 90% Calm Calm -- 30.00 in1015.9 mb 0.00 in0.0 mm 0.00 in0.0 mm 0.02 in0.5 mm
12:49 PM 53.4°F11.9°C 50.4°F10.2°C 89% Calm Calm -- 29.99 in1015.6 mb 0.00 in0.0 mm 0.00 in0.0 mm 0.02 in0.5 mm
12:54 PM 53.8°F12.1°C 50.7°F10.4°C 89% Calm Calm -- 30.00 in1015.9 mb 0.00 in0.0 mm 0.00 in0.0 mm 0.02 in0.5 mm
12:59 PM 54.0°F12.2°C 50.5°F10.3°C 88% Calm Calm -- 29.99 in1015.6 mb 0.00 in0.0 mm 0.00 in0.0 mm 0.02 in0.5 mm
01:04 PM 54.1°F12.3°C 50.7°F10.4°C 88% Calm Calm -- 30.00 in1015.9 mb 0.00 in0.0 mm 0.00 in0.0 mm 0.02 in0.5 mm
01:09 PM 54.5°F12.5°C 51.1°F10.6°C 88% Calm Calm -- 29.99 in1015.6 mb 0.00 in0.0 mm 0.00 in0.0 mm 0.02 in0.5 mm
01:14 PM 54.5°F12.5°C 50.7°F10.4°C 87% Calm Calm -- 29.98 in1015.2 mb 0.00 in0.0 mm 0.00 in0.0 mm 0.02 in0.5 mm
01:19 PM 54.7°F12.6°C 50.9°F10.5°C 87% Calm Calm -- 29.99 in1015.6 mb 0.02 in0.5 mm 0.24 in6.1 mm 0.04 in1.0 mm
01:24 PM 54.7°F12.6°C 51.3°F10.7°C 88% Calm Calm -- 29.98 in1015.2 mb 0.02 in0.5 mm 0.00 in0.0 mm 0.04 in1.0 mm
01:29 PM 54.9°F12.7°C 51.4°F10.8°C 88% Calm Calm -- 29.98 in1015.2 mb 0.02 in0.5 mm 0.00 in0.0 mm 0.04 in1.0 mm
01:34 PM 54.7°F12.6°C 51.3°F10.7°C 88% Calm Calm -- 29.96 in1014.6 mb 0.02 in0.5 mm 0.00 in0.0 mm 0.04 in1.0 mm
01:39 PM 54.7°F12.6°C 51.3°F10.7°C 88% Calm Calm -- 29.96 in1014.6 mb 0.02 in0.5 mm 0.00 in0.0 mm 0.04 in1.0 mm
01:44 PM 54.7°F12.6°C 51.3°F10.7°C 88% Calm Calm -- 29.96 in1014.6 mb 0.02 in0.5 mm 0.00 in0.0 mm 0.04 in1.0 mm
01:49 PM 54.7°F12.6°C 51.6°F10.9°C 89% Calm Calm -- 29.96 in1014.6 mb 0.02 in0.5 mm 0.00 in0.0 mm 0.04 in1.0 mm
01:54 PM 54.9°F12.7°C 51.6°F10.9°C 89% Calm Calm -- 29.95 in1014.2 mb 0.02 in0.5 mm 0.00 in0.0 mm 0.04 in1.0 mm
01:59 PM 55.0°F12.8°C 51.8°F11.0°C 89% Calm Calm -- 29.94 in1013.9 mb 0.02 in0.5 mm 0.00 in0.0 mm 0.04 in1.0 mm
02:04 PM 55.0°F12.8°C 51.6°F10.9°C 88% Calm Calm -- 29.94 in1013.9 mb 0.00 in0.0 mm 0.00 in0.0 mm 0.04 in1.0 mm
02:09 PM 55.2°F12.9°C 51.8°F11.0°C 88% Calm Calm -- 29.94 in1013.9 mb 0.00 in0.0 mm 0.00 in0.0 mm 0.04 in1.0 mm
02:14 PM 55.6°F13.1°C 52.2°F11.2°C 88% Calm Calm -- 29.93 in1013.5 mb 0.00 in0.0 mm 0.00 in0.0 mm 0.04 in1.0 mm
02:19 PM 55.8°F13.2°C 52.0°F11.1°C 87% Calm Calm -- 29.93 in1013.5 mb 0.00 in0.0 mm 0.00 in0.0 mm 0.04 in1.0 mm
02:24 PM 55.9°F13.3°C 52.2°F11.2°C 87% Calm Calm -- 29.93 in1013.5 mb 0.00 in0.0 mm 0.00 in0.0 mm 0.04 in1.0 mm
02:29 PM 56.3°F13.5°C 52.5°F11.4°C 87% Calm Calm -- 29.92 in1013.2 mb 0.00 in0.0 mm 0.00 in0.0 mm 0.04 in1.0 mm
02:34 PM 56.5°F13.6°C 52.3°F11.3°C 86% Calm Calm -- 29.92 in1013.2 mb 0.00 in0.0 mm 0.00 in0.0 mm 0.04 in1.0 mm
02:39 PM 56.7°F13.7°C 52.9°F11.6°C 87% Calm Calm -- 29.92 in1013.2 mb 0.00 in0.0 mm 0.00 in0.0 mm 0.04 in1.0 mm
02:44 PM 56.8°F13.8°C 53.1°F11.7°C 87% Calm Calm -- 29.91 in1012.9 mb 0.00 in0.0 mm 0.00 in0.0 mm 0.04 in1.0 mm
02:49 PM 56.8°F13.8°C 53.1°F11.7°C 87% Calm Calm -- 29.90 in1012.5 mb 0.00 in0.0 mm 0.00 in0.0 mm 0.04 in1.0 mm
02:54 PM 57.0°F13.9°C 53.2°F11.8°C 87% Calm Calm -- 29.91 in1012.9 mb 0.00 in0.0 mm 0.00 in0.0 mm 0.04 in1.0 mm
02:59 PM 57.0°F13.9°C 53.6°F12.0°C 88% Calm Calm -- 29.90 in1012.5 mb 0.00 in0.0 mm 0.00 in0.0 mm 0.04 in1.0 mm
03:04 PM 57.0°F13.9°C 53.6°F12.0°C 88% Calm Calm -- 29.91 in1012.9 mb 0.00 in0.0 mm 0.00 in0.0 mm 0.04 in1.0 mm
03:09 PM 57.0°F13.9°C 53.6°F12.0°C 88% Calm Calm -- 29.91 in1012.9 mb 0.00 in0.0 mm 0.00 in0.0 mm 0.04 in1.0 mm
03:14 PM 57.0°F13.9°C 53.2°F11.8°C 87% Calm Calm -- 29.91 in1012.9 mb 0.00 in0.0 mm 0.00 in0.0 mm 0.04 in1.0 mm
03:19 PM 57.0°F13.9°C 53.2°F11.8°C 87% Calm Calm -- 29.91 in1012.9 mb 0.00 in0.0 mm 0.00 in0.0 mm 0.04 in1.0 mm
03:24 PM 57.0°F13.9°C 53.2°F11.8°C 87% Calm Calm -- 29.90 in1012.5 mb 0.00 in0.0 mm 0.00 in0.0 mm 0.04 in1.0 mm
03:29 PM 57.0°F13.9°C 53.6°F12.0°C 88% Calm Calm -- 29.91 in1012.9 mb 0.00 in0.0 mm 0.00 in0.0 mm 0.04 in1.0 mm
03:34 PM 56.8°F13.8°C 53.4°F11.9°C 88% Calm Calm -- 29.90 in1012.5 mb 0.00 in0.0 mm 0.00 in0.0 mm 0.04 in1.0 mm
03:39 PM 56.8°F13.8°C 53.4°F11.9°C 88% Calm Calm -- 29.90 in1012.5 mb 0.00 in0.0 mm 0.00 in0.0 mm 0.04 in1.0 mm
03:44 PM 56.7°F13.7°C 53.2°F11.8°C 88% Calm Calm -- 29.91 in1012.9 mb 0.01 in0.3 mm 0.12 in3.0 mm 0.05 in1.3 mm
03:49 PM 56.7°F13.7°C 53.2°F11.8°C 88% Calm Calm -- 29.90 in1012.5 mb 0.01 in0.3 mm 0.00 in0.0 mm 0.05 in1.3 mm
03:54 PM 56.7°F13.7°C 53.2°F11.8°C 88% Calm Calm -- 29.90 in1012.5 mb 0.01 in0.3 mm 0.00 in0.0 mm 0.05 in1.3 mm
03:59 PM 56.7°F13.7°C 53.2°F11.8°C 88% Calm Calm -- 29.90 in1012.5 mb 0.01 in0.3 mm 0.00 in0.0 mm 0.05 in1.3 mm
04:04 PM 56.7°F13.7°C 53.2°F11.8°C 88% Calm Calm -- 29.89 in1012.2 mb 0.00 in0.0 mm 0.00 in0.0 mm 0.05 in1.3 mm
04:09 PM 56.5°F13.6°C 53.1°F11.7°C 88% 0.4 mph ESE0.6 kmh ESE 2.5 mph4.0 kmh 29.89 in1012.2 mb 0.00 in0.0 mm 0.00 in0.0 mm 0.05 in1.3 mm
04:14 PM 56.5°F13.6°C 53.1°F11.7°C 88% Calm Calm -- 29.90 in1012.5 mb 0.00 in0.0 mm 0.00 in0.0 mm 0.05 in1.3 mm
04:19 PM 56.5°F13.6°C 53.1°F11.7°C 88% Calm Calm -- 29.89 in1012.2 mb 0.00 in0.0 mm 0.00 in0.0 mm 0.05 in1.3 mm
04:24 PM 56.5°F13.6°C 53.1°F11.7°C 88% Calm Calm -- 29.89 in1012.2 mb 0.00 in0.0 mm 0.00 in0.0 mm 0.05 in1.3 mm
04:29 PM 56.5°F13.6°C 53.2°F11.8°C 89% Calm Calm -- 29.90 in1012.5 mb 0.00 in0.0 mm 0.00 in0.0 mm 0.05 in1.3 mm
04:34 PM 56.5°F13.6°C 53.1°F11.7°C 88% Calm Calm -- 29.90 in1012.5 mb 0.00 in0.0 mm 0.00 in0.0 mm 0.05 in1.3 mm
04:39 PM 56.5°F13.6°C 53.1°F11.7°C 88% Calm Calm -- 29.90 in1012.5 mb 0.00 in0.0 mm 0.00 in0.0 mm 0.05 in1.3 mm
04:44 PM 56.7°F13.7°C 53.4°F11.9°C 89% Calm Calm -- 29.90 in1012.5 mb 0.00 in0.0 mm 0.00 in0.0 mm 0.05 in1.3 mm
04:49 PM 56.5°F13.6°C 53.2°F11.8°C 89% Calm Calm -- 29.90 in1012.5 mb 0.00 in0.0 mm 0.00 in0.0 mm 0.05 in1.3 mm
04:54 PM 56.5°F13.6°C 53.2°F11.8°C 89% Calm Calm -- 29.90 in1012.5 mb 0.00 in0.0 mm 0.00 in0.0 mm 0.05 in1.3 mm
04:59 PM 56.5°F13.6°C 53.2°F11.8°C 89% Calm Calm -- 29.90 in1012.5 mb 0.00 in0.0 mm 0.00 in0.0 mm 0.05 in1.3 mm
05:04 PM 56.5°F13.6°C 53.2°F11.8°C 89% Calm Calm -- 29.90 in1012.5 mb 0.00 in0.0 mm 0.00 in0.0 mm 0.05 in1.3 mm
05:09 PM 56.5°F13.6°C 53.2°F11.8°C 89% Calm Calm -- 29.89 in1012.2 mb 0.00 in0.0 mm 0.00 in0.0 mm 0.05 in1.3 mm
05:14 PM 56.5°F13.6°C 53.2°F11.8°C 89% Calm Calm -- 29.89 in1012.2 mb 0.00 in0.0 mm 0.00 in0.0 mm 0.05 in1.3 mm
05:19 PM 56.5°F13.6°C 53.2°F11.8°C 89% Calm Calm -- 29.88 in1011.9 mb 0.00 in0.0 mm 0.00 in0.0 mm 0.05 in1.3 mm
05:24 PM 56.5°F13.6°C 53.2°F11.8°C 89% Calm Calm -- 29.88 in1011.9 mb 0.00 in0.0 mm 0.00 in0.0 mm 0.05 in1.3 mm
05:29 PM 56.5°F13.6°C 53.2°F11.8°C 89% Calm Calm -- 29.87 in1011.5 mb 0.00 in0.0 mm 0.00 in0.0 mm 0.05 in1.3 mm
05:34 PM 56.7°F13.7°C 53.4°F11.9°C 89% Calm Calm -- 29.88 in1011.9 mb 0.00 in0.0 mm 0.00 in0.0 mm 0.05 in1.3 mm
05:39 PM 56.7°F13.7°C 53.4°F11.9°C 89% Calm Calm -- 29.88 in1011.9 mb 0.00 in0.0 mm 0.00 in0.0 mm 0.05 in1.3 mm
05:44 PM 56.7°F13.7°C 53.4°F11.9°C 89% Calm Calm -- 29.87 in1011.5 mb 0.00 in0.0 mm 0.00 in0.0 mm 0.05 in1.3 mm
05:49 PM 56.5°F13.6°C 53.2°F11.8°C 89% Calm Calm -- 29.87 in1011.5 mb 0.00 in0.0 mm 0.00 in0.0 mm 0.05 in1.3 mm
05:54 PM 56.5°F13.6°C 53.2°F11.8°C 89% Calm Calm -- 29.88 in1011.9 mb 0.00 in0.0 mm 0.00 in0.0 mm 0.05 in1.3 mm
05:59 PM 56.5°F13.6°C 53.6°F12.0°C 90% Calm Calm -- 29.88 in1011.9 mb 0.00 in0.0 mm 0.00 in0.0 mm 0.05 in1.3 mm
06:04 PM 56.3°F13.5°C 53.4°F11.9°C 90% 0.9 mph SE1.4 kmh SE 2.5 mph4.0 kmh 29.88 in1011.9 mb 0.00 in0.0 mm 0.00 in0.0 mm 0.05 in1.3 mm
06:09 PM 56.3°F13.5°C 53.4°F11.9°C 90% Calm Calm -- 29.88 in1011.9 mb 0.00 in0.0 mm 0.00 in0.0 mm 0.05 in1.3 mm
06:14 PM 56.1°F13.4°C 53.2°F11.8°C 90% Calm Calm -- 29.87 in1011.5 mb 0.00 in0.0 mm 0.00 in0.0 mm 0.05 in1.3 mm
06:19 PM 56.1°F13.4°C 53.2°F11.8°C 90% Calm Calm -- 29.87 in1011.5 mb 0.00 in0.0 mm 0.00 in0.0 mm 0.05 in1.3 mm
06:24 PM 56.1°F13.4°C 53.6°F12.0°C 91% Calm Calm -- 29.87 in1011.5 mb 0.00 in0.0 mm 0.00 in0.0 mm 0.05 in1.3 mm
06:29 PM 55.9°F13.3°C 53.4°F11.9°C 91% Calm Calm -- 29.87 in1011.5 mb 0.00 in0.0 mm 0.00 in0.0 mm 0.05 in1.3 mm
06:34 PM 55.9°F13.3°C 53.4°F11.9°C 91% 0.2 mph ESE0.3 kmh ESE 2.5 mph4.0 kmh 29.87 in1011.5 mb 0.00 in0.0 mm 0.00 in0.0 mm 0.05 in1.3 mm
06:39 PM 55.9°F13.3°C 53.4°F11.9°C 91% Calm Calm -- 29.86 in1011.2 mb 0.00 in0.0 mm 0.00 in0.0 mm 0.05 in1.3 mm
06:44 PM 55.9°F13.3°C 53.4°F11.9°C 91% Calm Calm -- 29.87 in1011.5 mb 0.00 in0.0 mm 0.00 in0.0 mm 0.05 in1.3 mm
06:49 PM 55.8°F13.2°C 53.4°F11.9°C 92% Calm Calm -- 29.87 in1011.5 mb 0.00 in0.0 mm 0.00 in0.0 mm 0.05 in1.3 mm
06:54 PM 55.8°F13.2°C 53.4°F11.9°C 92% Calm Calm -- 29.87 in1011.5 mb 0.00 in0.0 mm 0.00 in0.0 mm 0.05 in1.3 mm
06:59 PM 55.8°F13.2°C 53.4°F11.9°C 92% Calm Calm -- 29.87 in1011.5 mb 0.00 in0.0 mm 0.00 in0.0 mm 0.05 in1.3 mm
07:04 PM 55.8°F13.2°C 53.4°F11.9°C 92% Calm Calm -- 29.87 in1011.5 mb 0.00 in0.0 mm 0.00 in0.0 mm 0.05 in1.3 mm
07:09 PM 55.8°F13.2°C 53.8°F12.1°C 93% Calm Calm -- 29.88 in1011.9 mb 0.00 in0.0 mm 0.00 in0.0 mm 0.05 in1.3 mm
07:14 PM 55.6°F13.1°C 53.6°F12.0°C 93% Calm Calm -- 29.87 in1011.5 mb 0.00 in0.0 mm 0.00 in0.0 mm 0.05 in1.3 mm
07:19 PM 55.6°F13.1°C 53.6°F12.0°C 93% Calm Calm -- 29.88 in1011.9 mb 0.00 in0.0 mm 0.00 in0.0 mm 0.05 in1.3 mm
07:24 PM 55.6°F13.1°C 53.6°F12.0°C 93% Calm Calm -- 29.88 in1011.9 mb 0.00 in0.0 mm 0.00 in0.0 mm 0.05 in1.3 mm
07:29 PM 55.6°F13.1°C 53.6°F12.0°C 93% Calm Calm -- 29.88 in1011.9 mb 0.00 in0.0 mm 0.00 in0.0 mm 0.05 in1.3 mm
07:34 PM 55.6°F13.1°C 53.6°F12.0°C 93% Calm Calm -- 29.88 in1011.9 mb 0.00 in0.0 mm 0.00 in0.0 mm 0.05 in1.3 mm
07:39 PM 55.6°F13.1°C 53.6°F12.0°C 93% Calm Calm -- 29.88 in1011.9 mb 0.00 in0.0 mm 0.00 in0.0 mm 0.05 in1.3 mm
07:44 PM 55.6°F13.1°C 53.6°F12.0°C 93% Calm Calm -- 29.88 in1011.9 mb 0.00 in0.0 mm 0.00 in0.0 mm 0.05 in1.3 mm
07:49 PM 55.6°F13.1°C 53.6°F12.0°C 93% Calm Calm -- 29.88 in1011.9 mb 0.00 in0.0 mm 0.00 in0.0 mm 0.05 in1.3 mm
07:54 PM 55.6°F13.1°C 53.6°F12.0°C 93% Calm Calm -- 29.88 in1011.9 mb 0.00 in0.0 mm 0.00 in0.0 mm 0.05 in1.3 mm
07:59 PM 55.6°F13.1°C 53.6°F12.0°C 93% Calm Calm -- 29.88 in1011.9 mb 0.00 in0.0 mm 0.00 in0.0 mm 0.05 in1.3 mm
08:04 PM 55.6°F13.1°C 53.6°F12.0°C 93% Calm Calm -- 29.89 in1012.2 mb 0.00 in0.0 mm 0.00 in0.0 mm 0.05 in1.3 mm
08:09 PM 55.6°F13.1°C 53.6°F12.0°C 93% Calm Calm -- 29.89 in1012.2 mb 0.00 in0.0 mm 0.00 in0.0 mm 0.05 in1.3 mm
08:14 PM 55.6°F13.1°C 53.6°F12.0°C 93% Calm Calm -- 29.88 in1011.9 mb 0.00 in0.0 mm 0.00 in0.0 mm 0.05 in1.3 mm
08:19 PM 55.6°F13.1°C 53.6°F12.0°C 93% Calm Calm -- 29.89 in1012.2 mb 0.00 in0.0 mm 0.00 in0.0 mm 0.05 in1.3 mm
08:24 PM 55.6°F13.1°C 53.6°F12.0°C 93% Calm Calm -- 29.89 in1012.2 mb 0.00 in0.0 mm 0.00 in0.0 mm 0.05 in1.3 mm
08:29 PM 55.6°F13.1°C 53.6°F12.0°C 93% Calm Calm -- 29.90 in1012.5 mb 0.00 in0.0 mm 0.00 in0.0 mm 0.05 in1.3 mm
08:34 PM 55.6°F13.1°C 54.0°F12.2°C 94% Calm Calm -- 29.90 in1012.5 mb 0.00 in0.0 mm 0.00 in0.0 mm 0.05 in1.3 mm
08:39 PM 55.6°F13.1°C 54.0°F12.2°C 94% Calm Calm -- 29.89 in1012.2 mb 0.00 in0.0 mm 0.00 in0.0 mm 0.05 in1.3 mm
08:44 PM 55.6°F13.1°C 54.0°F12.2°C 94% Calm Calm -- 29.89 in1012.2 mb 0.00 in0.0 mm 0.00 in0.0 mm 0.05 in1.3 mm
08:49 PM 55.8°F13.2°C 54.1°F12.3°C 94% Calm Calm -- 29.89 in1012.2 mb 0.00 in0.0 mm 0.00 in0.0 mm 0.05 in1.3 mm
08:54 PM 55.8°F13.2°C 54.1°F12.3°C 94% Calm Calm -- 29.90 in1012.5 mb 0.00 in0.0 mm 0.00 in0.0 mm 0.05 in1.3 mm
08:59 PM 55.8°F13.2°C 54.1°F12.3°C 94% Calm Calm -- 29.90 in1012.5 mb 0.00 in0.0 mm 0.00 in0.0 mm 0.05 in1.3 mm
09:04 PM 55.8°F13.2°C 54.1°F12.3°C 94% Calm Calm -- 29.90 in1012.5 mb 0.00 in0.0 mm 0.00 in0.0 mm 0.05 in1.3 mm
09:09 PM 55.8°F13.2°C 54.1°F12.3°C 94% Calm Calm -- 29.90 in1012.5 mb 0.01 in0.3 mm 0.12 in3.0 mm 0.06 in1.5 mm
09:14 PM 55.8°F13.2°C 54.1°F12.3°C 94% Calm Calm -- 29.90 in1012.5 mb 0.01 in0.3 mm 0.00 in0.0 mm 0.06 in1.5 mm
09:19 PM 55.8°F13.2°C 54.1°F12.3°C 94% Calm Calm -- 29.90 in1012.5 mb 0.01 in0.3 mm 0.00 in0.0 mm 0.06 in1.5 mm
09:24 PM 55.8°F13.2°C 54.1°F12.3°C 94% Calm Calm -- 29.90 in1012.5 mb 0.01 in0.3 mm 0.00 in0.0 mm 0.06 in1.5 mm
09:29 PM 55.8°F13.2°C 54.1°F12.3°C 94% Calm Calm -- 29.90 in1012.5 mb 0.01 in0.3 mm 0.00 in0.0 mm 0.06 in1.5 mm
09:34 PM 55.8°F13.2°C 54.1°F12.3°C 94% Calm Calm -- 29.90 in1012.5 mb 0.01 in0.3 mm 0.00 in0.0 mm 0.06 in1.5 mm
09:39 PM 55.8°F13.2°C 54.1°F12.3°C 94% Calm Calm -- 29.89 in1012.2 mb 0.01 in0.3 mm 0.00 in0.0 mm 0.06 in1.5 mm
09:44 PM 55.8°F13.2°C 54.1°F12.3°C 94% Calm Calm -- 29.89 in1012.2 mb 0.01 in0.3 mm 0.00 in0.0 mm 0.06 in1.5 mm
09:49 PM 55.8°F13.2°C 54.1°F12.3°C 94% Calm Calm -- 29.89 in1012.2 mb 0.01 in0.3 mm 0.00 in0.0 mm 0.06 in1.5 mm
09:54 PM 55.8°F13.2°C 54.1°F12.3°C 94% Calm Calm -- 29.90 in1012.5 mb 0.01 in0.3 mm 0.00 in0.0 mm 0.06 in1.5 mm
09:58 PM 55.8°F13.2°C 54.1°F12.3°C 94% Calm Calm -- 29.89 in1012.2 mb 0.01 in0.3 mm 0.00 in0.0 mm 0.06 in1.5 mm
10:04 PM 55.8°F13.2°C 54.1°F12.3°C 94% Calm Calm -- 29.89 in1012.2 mb 0.00 in0.0 mm 0.00 in0.0 mm 0.06 in1.5 mm
10:09 PM 55.8°F13.2°C 54.1°F12.3°C 94% Calm Calm -- 29.89 in1012.2 mb 0.00 in0.0 mm 0.00 in0.0 mm 0.06 in1.5 mm
10:14 PM 55.8°F13.2°C 54.1°F12.3°C 94% Calm Calm -- 29.89 in1012.2 mb 0.00 in0.0 mm 0.00 in0.0 mm 0.06 in1.5 mm
10:19 PM 55.8°F13.2°C 54.1°F12.3°C 94% Calm Calm -- 29.89 in1012.2 mb 0.00 in0.0 mm 0.00 in0.0 mm 0.06 in1.5 mm
10:24 PM 55.8°F13.2°C 54.1°F12.3°C 94% Calm Calm -- 29.89 in1012.2 mb 0.00 in0.0 mm 0.00 in0.0 mm 0.06 in1.5 mm
10:29 PM 55.8°F13.2°C 54.1°F12.3°C 94% 0.2 mph ESE0.3 kmh ESE 2.5 mph4.0 kmh 29.90 in1012.5 mb 0.00 in0.0 mm 0.00 in0.0 mm 0.06 in1.5 mm
10:34 PM 55.8°F13.2°C 54.1°F12.3°C 94% Calm Calm -- 29.91 in1012.9 mb 0.00 in0.0 mm 0.00 in0.0 mm 0.06 in1.5 mm
10:39 PM 55.8°F13.2°C 54.1°F12.3°C 94% Calm Calm -- 29.92 in1013.2 mb 0.00 in0.0 mm 0.00 in0.0 mm 0.06 in1.5 mm
10:44 PM 55.6°F13.1°C 54.0°F12.2°C 94% Calm Calm -- 29.92 in1013.2 mb 0.00 in0.0 mm 0.00 in0.0 mm 0.06 in1.5 mm
10:49 PM 55.6°F13.1°C 54.0°F12.2°C 94% Calm Calm -- 29.92 in1013.2 mb 0.00 in0.0 mm 0.00 in0.0 mm 0.06 in1.5 mm
10:54 PM 55.6°F13.1°C 54.0°F12.2°C 94% Calm Calm -- 29.93 in1013.5 mb 0.00 in0.0 mm 0.00 in0.0 mm 0.06 in1.5 mm
10:59 PM 55.6°F13.1°C 54.0°F12.2°C 94% Calm Calm -- 29.93 in1013.5 mb 0.00 in0.0 mm 0.00 in0.0 mm 0.06 in1.5 mm
11:04 PM 55.4°F13.0°C 53.8°F12.1°C 94% Calm Calm -- 29.93 in1013.5 mb 0.00 in0.0 mm 0.00 in0.0 mm 0.06 in1.5 mm
11:09 PM 55.4°F13.0°C 53.8°F12.1°C 94% Calm Calm -- 29.92 in1013.2 mb 0.00 in0.0 mm 0.00 in0.0 mm 0.06 in1.5 mm
11:14 PM 55.4°F13.0°C 53.8°F12.1°C 94% Calm Calm -- 29.92 in1013.2 mb 0.00 in0.0 mm 0.00 in0.0 mm 0.06 in1.5 mm
11:19 PM 55.4°F13.0°C 53.8°F12.1°C 94% Calm Calm -- 29.93 in1013.5 mb 0.00 in0.0 mm 0.00 in0.0 mm 0.06 in1.5 mm
11:24 PM 55.4°F13.0°C 53.8°F12.1°C 94% Calm Calm -- 29.93 in1013.5 mb 0.00 in0.0 mm 0.00 in0.0 mm 0.06 in1.5 mm
11:29 PM 55.4°F13.0°C 53.8°F12.1°C 94% Calm Calm -- 29.92 in1013.2 mb 0.00 in0.0 mm 0.00 in0.0 mm 0.06 in1.5 mm
11:34 PM 55.4°F13.0°C 53.8°F12.1°C 94% Calm Calm -- 29.93 in1013.5 mb 0.00 in0.0 mm 0.00 in0.0 mm 0.06 in1.5 mm
11:39 PM 55.2°F12.9°C 53.6°F12.0°C 94% Calm Calm -- 29.93 in1013.5 mb 0.00 in0.0 mm 0.00 in0.0 mm 0.06 in1.5 mm
11:44 PM 55.2°F12.9°C 53.6°F12.0°C 94% Calm Calm -- 29.93 in1013.5 mb 0.00 in0.0 mm 0.00 in0.0 mm 0.06 in1.5 mm
11:49 PM 55.2°F12.9°C 53.6°F12.0°C 94% Calm Calm -- 29.92 in1013.2 mb 0.00 in0.0 mm 0.00 in0.0 mm 0.06 in1.5 mm
11:54 PM 55.2°F12.9°C 53.6°F12.0°C 94% Calm Calm -- 29.93 in1013.5 mb 0.00 in0.0 mm 0.00 in0.0 mm 0.06 in1.5 mm
11:59 PM 55.2°F12.9°C 53.6°F12.0°C 94% Calm Calm -- 29.93 in1013.5 mb 0.00 in0.0 mm 0.00 in0.0 mm 0.06 in1.5 mm